sat.trackr.live / text

‹ back to catalog

STARLINK-31791

NORAD 59637 · 2024-082G

PAYLOAD ACTIVE UNKNOWN

§ Identity

Operator
Country
US
Launch date
2024-05-03
Launch site
AFETR
Launch vehicle
Mass (kg)
RCS (m²)

Purposes: comms

External: N2YO · Heavens-Above · Gunter

§ Orbital elements

Epoch: 2026-05-25T02:52:38.756928Z

Period
94.27 min
Inclination
43.0042°
Eccentricity
0.0001227
Mean motion
15.27596321 rev/d
Perigee alt
482.2 km
Apogee alt
483.8 km
Semi-major
6,861.1 km
B*
-5.4527e-5
RAAN
67.9394°
Arg perigee
287.7489°
Mean anomaly
72.3229°
Rev number
11,650

§ Raw data

STARLINK-317911 59637U 24082G   26145.11989302 -.00001763  00000+0 -54527-4 0  99922 59637  43.0042  67.9394 0001227 287.7489  72.3229 15.27596321116509

JSON: /api/v1/satellites/59637 · /tle

For live sub-satellite position, see the globe view (requires WebGL).

§ Visibility from observer

Set your observer location to see the next 7 days of passes ≥ 10°. The values pass through the URL so the page stays shareable.

No JS? Fill the form by hand. The geolocation button needs JavaScript.